User: anonymous   Login
Location: ?????????
(53.2086°N, 54.0693°E)
Time: 06:40:49
(UTC+00:00)
Language:

Okean 1-7 - Orbit

View from above orbital plane
View from above orbital plane
View from above satellite
View from above satellite

Ground track
Ground track

The orbit data is extracted from the following two-line orbital elements,

1 23317U 94066A   20049.88056316 +.00000144 +00000-0 +12959-4 0  9992
2 23317 082.5362 279.5787 0021160 064.2282 296.1116 14.87738491371158
Epoch (UTC): 18 February 2020 21:08:00
Eccentricity: 0.0021160
inclination: 82.5362°
perigee height: 590 km
apogee height: 620 km
right ascension of ascending node: 279.5787°
argument of perigee: 64.2282°
revolutions per day: 14.87738491
mean anomaly at epoch: 296.1116°
orbit number at epoch: 37115

The dashed part of the orbit path shows where the satellite is in the earth's shadow,  

DLR